Weather History for Alliance, NE

Change the Weather History Date:

Wednesday, February 27, 2013

  Actual Average Record
Temperature  
Mean Temperature 30 °F 30 °F  
Max Temperature 42 °F 45 °F 70 °F (1932)
Min Temperature 18 °F 16 °F -18 °F (1962)
Degree Days  
Heating Degree Days 35 34  
Month to date heating degree days 1008 1026  
Since 1 July heating degree days 5077 5371  
Cooling Degree Days 0 0  
Month to date cooling degree days 0 0  
Year to date cooling degree days 0 0  
Moisture  
Dew Point 20 °F    
Average Humidity 61    
Maximum Humidity 85    
Minimum Humidity 36    
Precipitation  
Precipitation T in 0.01 in 0.50 in (1978)
Month to date precipitation T 0.37  
Year to date precipitation 0.22 0.55  
Sea Level Pressure  
Sea Level Pressure 30.18 in    
Wind  
Wind Speed 15 mph (NNW)    
Max Wind Speed 26 mph    
Max Gust Speed 33 mph    
Visibility 10 miles    
Events Snow    
T = Trace of Precipitation, MM = Missing Value Source: NWS Daily Summary

Daily Weather History Graph

Daily Weather History Graph

Search for Another Location

Airport:

Trip Planner

Search our weather history database for the weather conditions in past years. The results will help you decide how hot, cold, wet, or windy it might be!

Date:

Astronomy

Feb. 27, 2013 Rise Set
Actual Time 6:28 AM MST 5:39 PM MST
Civil Twilight 6:00 AM MST 6:07 PM MST
Nautical Twilight 5:28 AM MST 6:39 PM MST
Astronomical Twilight 4:56 AM MST 7:12 PM MST
Moon 8:06 PM MST (2/27) 7:02 AM MST (2/27)
Length of Visible Light 12h 06m
Length of Day
11h 10m
Waning Gibbous, 96% of the Moon is Illuminated
Feb 27
Waning Gibbous
Mar 4
Last Quarter
Mar 11
New
Mar 19
First Quarter
Mar 27
Full

Hourly Weather History & Observations

Time (MST) Temp. Windchill Dew Point Humidity Pressure Visibility Wind Dir Wind Speed Gust Speed Precip Events Conditions
12:53 AM 30.0 °F 18.3 °F 26.1 °F 85% 30.11 in 9.0 mi NNW 17.3 mph - 0.00 in Snow Light Snow
1:00 AM 30.2 °F 19.3 °F 26.6 °F 86% 30.06 in 9.0 mi NNW 15.0 mph 23.0 mph 0.00 in Snow Light Snow
1:24 AM 30.2 °F 19.3 °F 26.6 °F 86% 30.07 in 10.0 mi NNW 15.0 mph - 0.00 in   Overcast
1:45 AM 30.2 °F 18.9 °F 24.8 °F 80% 30.07 in 10.0 mi NNW 16.1 mph - 0.00 in   Overcast
1:53 AM 30.0 °F 19.5 °F 25.0 °F 82% 30.13 in 10.0 mi NNW 13.8 mph - 0.00 in   Overcast
2:26 AM 28.4 °F 16.2 °F 24.8 °F 86% 30.08 in 10.0 mi North 17.3 mph - N/A   Overcast
2:53 AM 28.0 °F 15.3 °F 21.9 °F 78% 30.14 in 10.0 mi North 18.4 mph 26.5 mph N/A   Overcast
3:34 AM 26.6 °F 15.7 °F 21.2 °F 80% 30.09 in 10.0 mi North 12.7 mph - N/A   Scattered Clouds
3:53 AM 26.1 °F 15.6 °F 21.0 °F 81% 30.16 in 10.0 mi NNW 11.5 mph - N/A   Clear
4:53 AM 26.1 °F 12.7 °F 19.0 °F 75% 30.18 in 10.0 mi NNW 18.4 mph 24.2 mph N/A   Clear
5:53 AM 24.1 °F 13.1 °F 18.0 °F 77% 30.20 in 10.0 mi NNW 11.5 mph - N/A   Clear
6:53 AM 25.0 °F 13.6 °F 19.0 °F 78% 30.22 in 10.0 mi NW 12.7 mph - N/A   Clear
7:53 AM 28.4 °F 15.4 °F 19.4 °F 69% 30.13 in 10.0 mi NW 19.6 mph - N/A   Clear
8:53 AM 30.9 °F 18.1 °F 19.0 °F 61% 30.23 in 10.0 mi NNW 21.9 mph 28.8 mph N/A   Clear
9:53 AM 33.1 °F 20.9 °F 19.0 °F 56% 30.23 in 10.0 mi NNW 21.9 mph 28.8 mph N/A   Clear
10:53 AM 35.1 °F 24.5 °F 19.0 °F 52% 30.23 in 10.0 mi North 18.4 mph - N/A   Clear
11:53 AM 37.0 °F 26.2 °F 18.0 °F 46% 30.21 in 10.0 mi NW 21.9 mph 26.5 mph N/A   Clear
12:53 PM 39.9 °F 30.0 °F 18.0 °F 41% 30.18 in 10.0 mi NNW 21.9 mph 31.1 mph N/A   Clear
1:53 PM 41.0 °F 31.4 °F 17.1 °F 38% 30.18 in 10.0 mi NNW 21.9 mph - N/A   Partly Cloudy
2:53 PM 42.1 °F 32.8 °F 17.1 °F 37% 30.19 in 10.0 mi NNW 21.9 mph 27.6 mph N/A   Partly Cloudy
3:53 PM 39.0 °F 29.6 °F 16.0 °F 39% 30.20 in 10.0 mi WNW 18.4 mph 24.2 mph N/A   Scattered Clouds
4:53 PM 36.0 °F 27.1 °F 17.1 °F 46% 30.22 in 10.0 mi NW 13.8 mph - N/A   Clear
5:53 PM 34.0 °F 25.0 °F 16.0 °F 48% 30.24 in 10.0 mi NW 12.7 mph - N/A   Clear
6:53 PM 30.9 °F 22.2 °F 17.1 °F 57% 30.26 in 10.0 mi WNW 10.4 mph - N/A   Clear
7:53 PM 27.0 °F 19.5 °F 18.0 °F 69% 30.27 in 10.0 mi NNW 6.9 mph - N/A   Clear
8:53 PM 26.6 °F 19.1 °F 19.4 °F 74% 30.18 in 10.0 mi NW 6.9 mph - N/A   Clear
9:53 PM 27.0 °F 18.7 °F 18.0 °F 69% 30.26 in 10.0 mi NW 8.1 mph - N/A   Clear
10:53 PM 26.1 °F 16.8 °F 16.0 °F 66% 30.25 in 10.0 mi NW 9.2 mph - N/A   Clear
11:53 PM 19.9 °F 12.1 °F 15.1 °F 81% 30.27 in 10.0 mi West 5.8 mph - N/A   Clear